• In Uzbekistan
  • List of Countries
  • For 7 days
  • Water Temperature
  • Satellite Maps
  • Weather Map
  • Weather Widgets
  • user-avatar
    Login

    Hourly Weather Volubilis

    Today, 22 October, Monday

    Time Temperature Precipitation Wind Pressure Humidity
    00:00 +18°C° 0 mm 0 mps 725 mmHg 72%
    01:00 +18°C° 0 mm 0 mps 724 mmHg 73%
    02:00 +17°C° 0 mm 0 mps 724 mmHg 73%
    03:00 +17°C° 0 mm 0 mps 724 mmHg 74%
    04:00 +17°C° 0 mm 0 mps 724 mmHg 74%
    05:00 +19°C° 0 mm 1 mps 724 mmHg 73%
    06:00 +19°C° 0 mm 1 mps 724 mmHg 73%
    07:00 +20°C° 0 mm 1 mps 725 mmHg 66%
    08:00 +20°C° 0 mm 2 mps 725 mmHg 60%
    09:00 +23°C° 0 mm 2 mps 726 mmHg 54%
    10:00 +24°C° 0 mm 2 mps 726 mmHg 48%
    11:00 +25°C° 0 mm 3 mps 726 mmHg 42%
    12:00 +26°C° 0 mm 3 mps 726 mmHg 37%
    13:00 +27°C° 0 mm 3 mps 725 mmHg 36%
    14:00 +27°C° 0 mm 3 mps 725 mmHg 35%
    15:00 +27°C° 0 mm 3 mps 725 mmHg 34%
    16:00 +26°C° 0 mm 2 mps 725 mmHg 38%
    17:00 +25°C° 0 mm 2 mps 725 mmHg 42%
    18:00 +24°C° 0 mm 2 mps 725 mmHg 45%
    19:00 +24°C° 0 mm 2 mps 725 mmHg 46%
    20:00 +23°C° 0 mm 2 mps 725 mmHg 47%
    21:00 +23°C° 0 mm 2 mps 726 mmHg 48%
    22:00 +23°C° 0 mm 1 mps 726 mmHg 49%
    23:00 +23°C° 0 mm 1 mps 726 mmHg 49%

    Tomorrow, 23 October, Tuesday

    Time Temperature Precipitation Wind Pressure Humidity
    00:00 +22°C° 0 mm 1 mps 726 mmHg 50%
    01:00 +22°C° 0.2 mm 1 mps 726 mmHg 53%
    02:00 +22°C° 0.2 mm 1 mps 726 mmHg 55%
    03:00 +20°C° 0.2 mm 2 mps 726 mmHg 58%
    04:00 +20°C° 0.3 mm 2 mps 726 mmHg 60%
    05:00 +20°C° 0.3 mm 2 mps 726 mmHg 62%
    06:00 +19°C° 0.3 mm 2 mps 727 mmHg 64%
    07:00 +20°C° 0 mm 2 mps 727 mmHg 61%
    08:00 +22°C° 0 mm 1 mps 727 mmHg 58%
    09:00 +23°C° 0 mm 1 mps 728 mmHg 55%
    10:00 +24°C° 0 mm 2 mps 728 mmHg 51%
    11:00 +25°C° 0 mm 2 mps 728 mmHg 47%
    12:00 +26°C° 0 mm 3 mps 728 mmHg 43%
    13:00 +26°C° 0 mm 3 mps 727 mmHg 42%
    14:00 +27°C° 0 mm 4 mps 727 mmHg 41%
    15:00 +27°C° 0 mm 4 mps 727 mmHg 40%
    16:00 +26°C° 0 mm 4 mps 727 mmHg 42%
    17:00 +25°C° 0 mm 3 mps 727 mmHg 45%
    18:00 +24°C° 0 mm 3 mps 727 mmHg 47%
    19:00 +24°C° 0 mm 2 mps 727 mmHg 50%
    20:00 +23°C° 0 mm 2 mps 727 mmHg 52%
    21:00 +21°C° 0 mm 2 mps 727 mmHg 55%
    22:00 +21°C° 0 mm 2 mps 727 mmHg 57%
    23:00 +20°C° 0 mm 2 mps 727 mmHg 59%

    Day after tomorrow, 24 October, Wednesday

    Time Temperature Precipitation Wind Pressure Humidity
    00:00 +20°C° 0 mm 2 mps 727 mmHg 61%
    01:00 +20°C° 0 mm 2 mps 727 mmHg 62%
    02:00 +19°C° 0 mm 2 mps 726 mmHg 64%
    03:00 +19°C° 0 mm 2 mps 726 mmHg 65%
    04:00 +19°C° 0 mm 2 mps 726 mmHg 65%
    05:00 +19°C° 0 mm 2 mps 726 mmHg 65%
    06:00 +18°C° 0 mm 2 mps 726 mmHg 65%
    07:00 +19°C° 0 mm 2 mps 726 mmHg 60%
    08:00 +21°C° 0 mm 2 mps 727 mmHg 55%
    09:00 +23°C° 0 mm 2 mps 727 mmHg 50%
    10:00 +24°C° 0 mm 3 mps 727 mmHg 46%
    11:00 +26°C° 0 mm 3 mps 727 mmHg 41%
    12:00 +27°C° 0 mm 3 mps 727 mmHg 36%
    13:00 +27°C° 0 mm 3 mps 726 mmHg 34%
    14:00 +28°C° 0 mm 3 mps 726 mmHg 33%
    15:00 +28°C° 0 mm 3 mps 725 mmHg 31%
    16:00 +27°C° 0 mm 2 mps 725 mmHg 34%
    17:00 +26°C° 0 mm 2 mps 725 mmHg 37%
    18:00 +25°C° 0 mm 2 mps 725 mmHg 40%
    19:00 +24°C° 0 mm 2 mps 725 mmHg 42%
    20:00 +24°C° 0 mm 1 mps 725 mmHg 45%
    21:00 +23°C° 0 mm 1 mps 726 mmHg 47%
    22:00 +22°C° 0 mm 1 mps 725 mmHg 48%
    23:00 +22°C° 0 mm 1 mps 725 mmHg 50%

    25 October, Thursday

    Time Temperature Precipitation Wind Pressure Humidity
    00:00 +22°C° 0 mm 1 mps 725 mmHg 51%
    01:00 +21°C° 0 mm 1 mps 725 mmHg 52%
    02:00 +21°C° 0 mm 1 mps 724 mmHg 52%
    03:00 +21°C° 0 mm 1 mps 724 mmHg 52%
    04:00 +20°C° 0 mm 1 mps 724 mmHg 52%
    05:00 +20°C° 0 mm 1 mps 724 mmHg 52%
    06:00 +20°C° 0 mm 1 mps 724 mmHg 51%
    07:00 +21°C° 0 mm 1 mps 724 mmHg 47%
    08:00 +23°C° 0 mm 1 mps 725 mmHg 43%
    09:00 +24°C° 0 mm 1 mps 725 mmHg 38%
    10:00 +26°C° 0 mm 2 mps 725 mmHg 35%
    11:00 +27°C° 0 mm 2 mps 724 mmHg 32%
    12:00 +29°C° 0 mm 2 mps 724 mmHg 28%
    13:00 +29°C° 0 mm 2 mps 724 mmHg 28%
    14:00 +29°C° 0 mm 2 mps 724 mmHg 27%
    15:00 +30°C° 0 mm 2 mps 723 mmHg 26%
    16:00 +29°C° 0 mm 1 mps 723 mmHg 30%
    17:00 +27°C° 0 mm 1 mps 723 mmHg 33%
    18:00 +26°C° 0 mm 1 mps 723 mmHg 37%
    19:00 +26°C° 0 mm 1 mps 723 mmHg 39%
    20:00 +25°C° 0 mm 1 mps 723 mmHg 41%
    21:00 +25°C° 0 mm 1 mps 723 mmHg 43%
    22:00 +24°C° 0 mm 1 mps 723 mmHg 46%
    23:00 +23°C° 0 mm 1 mps 723 mmHg 50%

    26 October, Friday

    Time Temperature Precipitation Wind Pressure Humidity
    00:00 +23°C° 0 mm 1 mps 722 mmHg 54%
    01:00 +21°C° 0 mm 2 mps 722 mmHg 56%
    02:00 +21°C° 0 mm 2 mps 722 mmHg 58%
    03:00 +21°C° 0 mm 2 mps 722 mmHg 60%
    04:00 +20°C° 0.1 mm 2 mps 722 mmHg 62%
    05:00 +21°C° 0.1 mm 1 mps 722 mmHg 64%
    06:00 +21°C° 0.1 mm 1 mps 722 mmHg 65%
    07:00 +21°C° 0 mm 1 mps 722 mmHg 64%
    08:00 +21°C° 0 mm 1 mps 722 mmHg 64%
    09:00 +22°C° 0 mm 1 mps 723 mmHg 63%
    10:00 +22°C° 0 mm 1 mps 722 mmHg 60%
    11:00 +23°C° 0 mm 1 mps 722 mmHg 57%
    12:00 +24°C° 0 mm 1 mps 722 mmHg 54%
    13:00 +24°C° 0 mm 1 mps 721 mmHg 53%
    14:00 +24°C° 0 mm 1 mps 721 mmHg 51%
    15:00 +25°C° 0 mm 1 mps 720 mmHg 50%
    16:00 +24°C° 0.2 mm 1 mps 721 mmHg 53%
    17:00 +23°C° 0.2 mm 1 mps 721 mmHg 57%
    18:00 +23°C° 0.2 mm 1 mps 721 mmHg 60%
    19:00 +22°C° 0.5 mm 1 mps 721 mmHg 63%
    20:00 +21°C° 0.5 mm 1 mps 721 mmHg 67%
    21:00 +21°C° 0.5 mm 1 mps 721 mmHg 70%
    22:00 +20°C° 0.9 mm 1 mps 721 mmHg 72%
    23:00 +20°C° 0.9 mm 1 mps 721 mmHg 74%

    27 October, Saturday

    Time Temperature Precipitation Wind Pressure Humidity
    00:00 +19°C° 0.9 mm 1 mps 720 mmHg 77%
    01:00 +19°C° 0.5 mm 1 mps 720 mmHg 78%
    02:00 +18°C° 0.5 mm 2 mps 720 mmHg 79%
    03:00 +18°C° 0.5 mm 2 mps 719 mmHg 80%
    04:00 +17°C° 0.5 mm 2 mps 719 mmHg 81%
    05:00 +17°C° 0.5 mm 3 mps 719 mmHg 82%
    06:00 +17°C° 0.5 mm 3 mps 719 mmHg 83%
    07:00 +17°C° 0.7 mm 4 mps 720 mmHg 80%
    08:00 +17°C° 0.7 mm 5 mps 720 mmHg 77%
    09:00 +17°C° 0.7 mm 6 mps 720 mmHg 73%
    10:00 +17°C° 0.8 mm 6 mps 720 mmHg 73%
    11:00 +17°C° 0.8 mm 6 mps 720 mmHg 72%
    12:00 +17°C° 0.8 mm 6 mps 720 mmHg 71%
    13:00 +16°C° 0.6 mm 6 mps 719 mmHg 74%
    14:00 +15°C° 0.6 mm 5 mps 719 mmHg 77%
    15:00 +14°C° 0.6 mm 4 mps 719 mmHg 79%
    16:00 +14°C° 0.4 mm 4 mps 719 mmHg 79%
    17:00 +14°C° 0.4 mm 3 mps 719 mmHg 79%
    18:00 +14°C° 0.4 mm 3 mps 719 mmHg 78%
    19:00 +14°C° 0.1 mm 3 mps 719 mmHg 78%
    20:00 +13°C° 0.1 mm 3 mps 719 mmHg 77%
    21:00 +13°C° 0.1 mm 3 mps 720 mmHg 76%
    22:00 +13°C° 0.3 mm 4 mps 719 mmHg 76%
    23:00 +13°C° 0.3 mm 4 mps 719 mmHg 75%
    Show more